Regional Weather Roundup
Issued by NWS

Home | Current Version | Previous Version | Text Only | Print | Product List | Glossary Off
Versions: 1 2 3 4 5 6 7 8 9 10 11 12 13 14 15 16 17 18 19 20 21 22 23 24 25 26 27 28 29 30 31 32 33 34 35 36 37 38 39 40 41 42 43 44 45 46 47 48 49 50

000
ASUS45 KBOI 271010
RWRID
WEATHER ROUNDUP FOR IDAHO
NATIONAL WEATHER SERVICE BOISE ID
400 AM MDT MON APR 27 2015

NOTE: "FAIR" INDICATES FEW OR NO CLOUDS BELOW 12000 FEET
WITH NO SIGNIFICANT WEATHER AND/OR OBSTRUCTIONS TO VISIBILITY

IDZ012-014-271100-
SOUTHWEST IDAHO


CITY           SKY/WX    TMP DP  RH WIND       PRES   REMARKS
BOISE          CLEAR     39  26  59 CALM      30.24S
CALDWELL       CLEAR     37  21  52 W7        30.28R WCI  32
MOUNTAIN HOME  CLEAR     35  23  62 NW9       30.23R WCI  28
$$

IDZ016-017-271100-
SOUTHCENTRAL IDAHO


CITY           SKY/WX    TMP DP  RH WIND       PRES   REMARKS
BURLEY         CLEAR     34  21  59 W3        30.22R
JEROME         CLEAR     33  19  56 SE7       30.22R WCI  27
TWIN FALLS     CLEAR     38  20  48 S14       30.21R WCI  30
$$

IDZ019>023-271100-
SOUTHEAST IDAHO


CITY           SKY/WX    TMP DP  RH WIND       PRES   REMARKS
IDAHO FALLS    CLEAR     33  28  81 N7        30.23R WCI  27
POCATELLO      CLEAR     37  29  72 SW6       30.25R WCI  32
REXBURG        CLEAR     34  30  85 NE3       30.23R
$$

IDZ006-010-011-018-031-032-271100-
CENTRAL IDAHO MOUNTAINS


CITY           SKY/WX    TMP DP  RH WIND       PRES   REMARKS
MCCALL         CLEAR     27  23  85 CALM      30.27R
HAILEY         CLEAR     34  27  75 NW7       30.25S WCI  28
STANLEY          N/A     19  15  84 S5        30.29R WCI  12
SALMON         PTCLDY    36  30  80 S5        30.29R WCI  32
CHALLIS        CLEAR     32  25  75 CALM      30.28R
$$

IDZ002-004-006-007-026-271100-
NORTHERN IDAHO


CITY           SKY/WX    TMP DP  RH WIND       PRES   REMARKS
LEWISTON       PTCLDY    38  28  67 SE6       30.31R WCI  33
LOWELL           N/A     36  34  92 N5        30.41R WCI  32
COEUR D`ALENE  CLEAR     36  30  80 NE3       30.31R
MULLAN PASS    CLEAR     32  20  61 VRB3      30.26S
$$



USA.gov is the U.S. government's official web portal to all federal, state and local government web resources and services.